Dansville, NY

4:12 AM EST on February 24, 2017 (GMT -0500)
Dansville Municipal

Weather History for KDSV - November, 2012

Change the Weather History Date:

Friday, November 2, 2012

  Actual Average Record
Temperature  
Mean Temperature 40 °F -  
Max Temperature 44 °F 59 °F 83 °F (1950)
Min Temperature 37 °F 39 °F 20 °F (1965)
Degree Days  
Heating Degree Days 25    
Moisture  
Dew Point 33 °F    
Average Humidity 76    
Maximum Humidity 87    
Minimum Humidity 65    
Precipitation  
Precipitation 0.02 in - - ()
Sea Level Pressure  
Sea Level Pressure 29.76 in    
Wind  
Wind Speed 7 mph (NW)    
Max Wind Speed 16 mph    
Max Gust Speed 21 mph    
Visibility 10 miles    
Events Rain    
Averages and records for this station are not official NWS values.
T = Trace of Precipitation, MM = Missing Value Source: NWS Daily Summary

Daily Weather History Graph

Daily Weather History Graph

Search for Another Location

Airport or City:

Trip Planner

Search our weather history database for the weather conditions in past years. The results will help you decide how hot, cold, wet, or windy it might be!

Date:

Astronomy

Nov. 02, 2012 Rise Set
Actual Time 7:46 AM EDT 6:01 PM EDT
Civil Twilight 7:16 AM EDT 6:31 PM EDT
Nautical Twilight 6:43 AM EDT 7:04 PM EDT
Astronomical Twilight 6:10 AM EDT 7:37 PM EDT
Moon 8:44 PM EDT (11/2) 11:08 AM EDT (11/2)
Length of Visible Light 11h 14m
Length of Day
10h 15m
Waning Gibbous, 87% of the Moon is Illuminated
Nov 2
Waning Gibbous
Nov 6
Last Quarter
Nov 13
New
Nov 20
First Quarter
Nov 28
Full

Hourly Weather History & Observations

Time (EDT) Temp. Windchill Dew Point Humidity Pressure Visibility Wind Dir Wind Speed Gust Speed Precip Events Conditions
12:54 AM 43.0 °F 40.3 °F 36.0 °F 76% 29.67 in 10.0 mi NW 4.6 mph - 0.00 in   Overcast
1:54 AM 43.0 °F 41.3 °F 35.1 °F 74% 29.66 in 10.0 mi Variable 3.5 mph - N/A   Overcast
2:54 AM 43.0 °F 41.3 °F 35.1 °F 74% 29.67 in 10.0 mi Variable 3.5 mph - N/A   Overcast
3:54 AM 43.0 °F 39.5 °F 34.0 °F 71% 29.67 in 10.0 mi WNW 5.8 mph - N/A   Overcast
4:54 AM 42.1 °F 37.7 °F 34.0 °F 73% 29.67 in 10.0 mi WNW 6.9 mph - N/A   Overcast
5:54 AM 42.1 °F 38.4 °F 34.0 °F 73% 29.67 in 10.0 mi NW 5.8 mph - N/A   Overcast
6:54 AM 41.0 °F 37.1 °F 34.0 °F 76% 29.67 in 10.0 mi NW 5.8 mph - N/A   Overcast
7:54 AM 41.0 °F 37.1 °F 35.1 °F 79% 29.69 in 10.0 mi NW 5.8 mph - N/A   Overcast
8:54 AM 41.0 °F 38.0 °F 30.9 °F 67% 29.71 in 10.0 mi WNW 4.6 mph - N/A   Overcast
9:23 AM 41.0 °F 38.0 °F 30.2 °F 65% 29.68 in 10.0 mi WNW 4.6 mph - N/A   Overcast
9:54 AM 39.0 °F 30.3 °F 34.0 °F 82% 29.73 in 10.0 mi NW 16.1 mph - 0.00 in Rain Light Rain
10:22 AM 41.0 °F 34.7 °F 33.8 °F 76% 29.70 in 10.0 mi NW 10.4 mph - 0.00 in   Overcast
10:54 AM 41.0 °F 34.7 °F 32.0 °F 70% 29.74 in 10.0 mi NW 10.4 mph 18.4 mph 0.00 in   Overcast
11:54 AM 41.0 °F 34.3 °F 32.0 °F 70% 29.75 in 10.0 mi WNW 11.5 mph - N/A   Overcast
12:54 PM 42.1 °F 35.2 °F 32.0 °F 67% 29.75 in 10.0 mi NW 12.7 mph 19.6 mph N/A   Overcast
1:54 PM 39.9 °F 33.9 °F 33.1 °F 77% 29.76 in 10.0 mi NNW 9.2 mph - N/A   Overcast
2:54 PM 39.9 °F 33.9 °F 33.1 °F 77% 29.78 in 10.0 mi NW 9.2 mph - 0.00 in   Overcast
3:32 PM 39.2 °F 32.0 °F 33.8 °F 81% 29.76 in 10.0 mi NW 11.5 mph 18.4 mph 0.00 in Rain Light Rain
3:43 PM 39.2 °F 32.5 °F 33.8 °F 81% 29.76 in 10.0 mi NW 10.4 mph - 0.00 in Rain Light Rain
3:54 PM 39.9 °F 33.4 °F 33.1 °F 77% 29.80 in 10.0 mi NW 10.4 mph - 0.00 in Rain Light Rain
4:46 PM 37.4 °F 30.8 °F 33.8 °F 87% 29.78 in 10.0 mi WNW 9.2 mph - 0.02 in Rain Light Rain
4:54 PM 37.9 °F 30.9 °F 34.0 °F 86% 29.83 in 10.0 mi WNW 10.4 mph 17.3 mph 0.02 in Rain Light Rain
5:54 PM 37.9 °F 32.1 °F 34.0 °F 86% 29.84 in 10.0 mi WNW 8.1 mph - 0.00 in   Overcast
6:54 PM 37.9 °F 33.5 °F 32.0 °F 79% 29.87 in 10.0 mi WNW 5.8 mph - N/A   Overcast
7:54 PM 39.0 °F 32.8 °F 32.0 °F 76% 29.88 in 10.0 mi WNW 9.2 mph - N/A   Overcast
8:54 PM 39.0 °F 33.4 °F 30.9 °F 73% 29.89 in 10.0 mi WNW 8.1 mph - N/A   Overcast
9:54 PM 39.0 °F 31.4 °F 30.0 °F 70% 29.90 in 10.0 mi WNW 12.7 mph 20.7 mph N/A   Overcast
10:54 PM 37.9 °F 31.5 °F 30.9 °F 76% 29.91 in 10.0 mi NW 9.2 mph 16.1 mph N/A   Overcast
11:54 PM 37.9 °F 32.1 °F 30.9 °F 76% 29.91 in 10.0 mi WNW 8.1 mph - N/A   Overcast